Theta_e
318 316 316 319 321 321 322 324 327 329 328 328 329 330 329 328 327 326 324 323 322 321 321 322 322 322 322 322 323 323 323 323 324 324 325 324 324 324 323 323 323 323 323 324 324 325 327 326 325 323 328 331 320 314 313 316 321 323 333 332 326 329 327 326 325 322 320 322 320 315 319 324 321 315 315 319 330 338 333 336 338 330 329 329 327 328 332 335
317 317 316 318 320 320 321 323 326 328 328 329 329 330 329 328 326 325 324 323 322 321 322 323 323 324 323 324 324 324 324 323 323 323 324 324 324 325 324 323 323 324 324 324 324 324 331 331 325 326 334 336 322 317 316 313 319 329 329 324 329 336 328 324 323 320 318 317 319 318 318 319 320 319 317 320 329 334 334 334 337 338 335 330 328 330 333 333
317 317 317 317 320 321 320 322 324 326 328 329 329 330 329 327 326 324 324 323 322 322 323 323 323 324 323 324 324 324 323 321 322 322 323 324 326 325 324 324 324 324 324 324 325 323 329 329 325 329 335 333 327 321 317 314 319 324 321 321 332 333 325 323 320 319 319 316 318 320 317 316 318 318 317 322 330 334 336 334 335 341 341 335 329 329 332 333
316 317 317 317 318 320 321 321 322 325 328 329 329 330 328 327 326 324 324 323 323 323 323 323 323 323 323 323 322 322 320 318 321 322 322 324 325 326 325 326 325 325 326 325 325 324 325 325 324 331 333 332 330 324 316 315 318 317 318 324 324 319 318 319 317 317 318 315 317 321 318 316 316 316 318 325 331 333 332 331 333 340 344 337 329 329 331 332
317 317 317 317 317 319 321 322 322 324 327 329 329 329 328 327 326 325 324 323 323 323 323 322 322 322 322 321 321 319 318 320 322 318 320 323 324 326 326 326 326 326 326 325 325 324 325 324 325 330 334 334 330 328 324 315 312 314 317 321 317 314 314 314 314 314 315 314 316 320 319 317 316 314 320 326 326 326 325 326 328 334 339 335 329 329 330 331
316 317 317 317 317 318 320 322 322 323 325 328 329 328 328 327 326 325 324 323 323 322 322 322 322 321 321 320 319 317 318 322 321 317 319 320 322 325 325 326 326 326 326 326 324 324 325 325 327 330 334 334 329 330 326 314 310 313 315 315 313 312 312 313 312 312 313 313 317 320 318 316 316 315 319 324 322 319 317 318 324 329 330 331 329 329 330 331
315 315 316 317 316 317 318 321 322 323 324 326 328 328 328 327 326 326 324 323 323 322 321 321 322 320 319 319 317 316 317 320 319 318 319 318 320 323 325 326 325 326 325 324 323 324 326 326 330 329 330 333 330 328 324 317 311 311 314 313 311 310 310 312 310 310 312 314 317 317 315 315 317 318 317 321 320 318 318 315 319 325 326 328 329 330 330 330
315 315 315 316 316 316 317 319 321 323 323 326 328 328 328 327 326 326 324 323 322 322 321 321 320 319 319 318 318 319 318 318 318 319 320 320 321 322 326 326 325 326 324 324 323 324 326 327 329 326 329 332 329 328 324 322 317 311 313 311 310 311 310 311 310 311 313 315 315 313 315 317 316 315 316 320 318 318 326 323 322 326 327 329 330 330 330 330
315 315 315 316 316 316 316 317 320 322 322 325 328 327 328 327 326 326 324 324 323 322 321 320 320 319 319 318 318 320 318 316 318 320 321 323 324 324 326 324 324 325 323 323 323 323 327 329 329 327 332 330 326 329 326 329 328 313 308 310 310 311 310 312 313 313 314 314 313 314 317 316 312 312 316 318 316 323 334 332 330 330 330 331 331 330 329 329
314 315 315 315 316 316 316 316 318 321 322 324 327 328 328 327 326 326 325 324 322 322 321 320 319 319 319 318 317 319 318 317 318 320 321 323 323 324 324 323 324 324 322 321 321 323 326 328 326 325 330 328 325 327 325 332 330 314 309 314 314 311 310 312 314 314 314 313 314 316 316 314 311 313 318 316 317 331 343 338 330 331 332 331 331 330 329 329
313 314 314 314 316 316 315 315 316 319 321 324 327 328 327 326 325 325 325 324 323 322 321 320 319 319 319 317 318 318 318 318 319 320 321 321 322 322 322 323 323 324 322 319 320 323 324 324 321 323 329 327 325 324 324 326 323 316 315 321 320 314 313 313 314 315 313 312 314 315 314 314 311 314 318 314 317 327 343 340 329 330 332 330 331 331 328 329
313 314 314 314 315 315 315 315 315 317 320 322 325 327 326 326 325 324 324 324 323 322 321 319 319 320 318 317 318 317 318 319 319 321 322 320 320 321 321 322 322 324 323 319 320 321 323 322 321 326 329 325 326 326 326 321 316 315 316 324 325 318 317 315 313 315 312 312 315 314 314 315 313 316 315 313 319 327 339 340 328 328 331 329 331 330 329 328
313 313 314 314 314 315 315 315 314 316 319 321 323 325 325 325 324 324 324 324 323 322 320 319 319 320 318 319 318 316 319 320 319 321 322 320 319 319 320 320 322 323 324 322 321 321 322 322 322 326 324 323 327 326 324 317 313 316 314 320 324 321 323 317 311 313 312 313 315 313 317 321 318 316 313 317 325 331 339 341 328 327 331 329 330 330 330 328
313 313 313 314 314 315 315 314 314 314 318 321 323 325 325 325 324 323 323 323 323 321 320 319 320 319 318 320 317 316 320 320 321 323 320 319 317 316 316 317 319 320 322 323 321 320 321 322 320 320 318 322 323 320 324 324 320 320 317 318 318 322 328 320 313 313 311 313 313 312 316 321 319 316 313 321 331 331 335 340 330 328 330 329 330 329 330 328
311 312 313 314 314 314 315 314 313 313 316 320 322 324 325 324 323 322 323 323 322 320 320 320 321 319 319 321 317 317 321 322 324 323 318 317 316 314 313 315 316 316 319 321 321 319 319 320 319 319 316 317 319 321 329 331 326 322 324 325 318 318 323 318 316 315 312 312 311 312 316 318 317 316 312 317 329 329 327 335 332 330 329 328 329 328 329 328
310 311 312 313 313 314 315 314 314 313 314 319 322 324 325 325 323 322 323 323 321 320 320 322 320 319 320 321 318 319 323 324 324 322 316 317 318 314 313 314 314 315 316 317 318 316 317 317 317 318 317 317 321 325 328 329 326 322 325 327 319 315 316 315 315 314 314 313 311 312 316 318 316 314 310 311 324 329 324 329 331 330 329 328 329 328 328 328
309 309 311 312 313 314 314 314 314 313 314 319 323 323 324 325 323 322 323 322 321 321 321 322 320 320 321 319 319 322 323 323 323 321 317 318 319 314 313 313 311 312 313 313 315 314 315 315 314 316 320 323 323 324 329 330 328 324 320 321 319 315 313 314 315 313 312 313 313 313 313 317 316 313 311 311 319 326 325 324 327 328 328 327 328 328 328 327
309 310 311 311 312 313 314 314 314 315 315 318 323 324 324 325 323 322 323 322 321 321 322 321 320 322 323 319 320 322 321 322 323 320 318 318 317 314 313 312 310 311 312 312 313 313 314 315 315 319 322 323 321 323 330 331 329 326 319 319 319 315 313 313 314 312 311 312 313 314 313 314 314 313 313 312 316 325 327 320 319 323 326 327 326 327 327 327
310 310 310 311 312 313 314 314 314 316 315 318 323 324 324 324 323 323 322 322 323 323 324 323 321 324 324 320 319 320 320 322 322 319 318 317 315 313 312 311 310 311 313 314 314 313 315 317 318 322 322 321 321 323 328 328 327 325 319 318 318 316 315 312 312 312 311 312 313 314 314 313 313 313 313 313 315 322 323 316 316 319 322 324 324 324 325 326
308 310 310 311 312 312 314 314 314 316 315 318 324 324 325 326 326 325 322 322 323 322 324 324 323 323 322 319 318 319 320 321 319 316 316 315 313 313 312 311 312 312 313 315 316 314 316 319 319 321 322 321 321 322 323 323 323 321 316 315 315 315 314 312 312 312 310 312 314 313 313 313 313 313 313 314 314 318 319 317 316 315 316 319 321 322 322 323
307 310 311 311 312 312 314 314 314 316 316 319 323 325 326 327 328 326 322 324 322 319 322 322 319 319 318 318 318 318 318 318 316 314 314 314 312 314 313 312 314 314 315 315 315 314 315 320 320 321 321 320 320 320 318 317 318 318 316 313 314 314 313 311 310 311 311 312 315 314 312 313 312 311 312 313 314 316 318 317 317 314 312 312 315 318 318 319
308 311 312 311 312 312 313 314 315 316 317 320 323 324 325 326 325 323 323 327 322 317 320 319 317 318 317 317 318 319 319 318 316 313 312 312 313 315 314 313 315 315 315 314 314 315 316 319 320 320 320 319 320 321 318 315 315 318 319 316 315 314 313 312 311 311 311 312 316 315 312 312 312 311 310 311 313 314 314 315 315 314 313 311 311 313 314 315
311 312 313 312 312 313 314 314 315 316 318 321 323 324 324 323 321 321 325 327 322 317 318 318 318 319 317 317 319 318 319 320 318 314 311 311 314 315 314 314 316 316 315 315 316 317 318 319 319 319 319 318 319 320 318 316 315 317 319 317 316 315 314 314 312 311 311 311 314 314 312 312 311 311 311 310 310 312 312 313 313 313 313 313 311 310 310 312
314 314 314 312 312 313 314 314 316 317 319 322 323 323 324 321 319 321 324 324 322 319 317 317 316 318 318 318 319 319 320 319 317 314 310 312 314 314 314 315 315 315 315 316 316 318 319 317 318 318 318 318 319 319 318 317 317 316 316 317 317 314 313 312 311 311 313 313 311 312 315 316 314 313 314 312 310 309 310 311 312 312 312 312 311 310 310 310
316 315 314 313 313 313 314 315 317 319 320 321 323 323 322 320 319 321 322 324 324 319 316 315 314 317 318 316 317 318 318 317 316 313 309 311 314 313 314 314 316 316 316 317 317 318 319 315 316 318 317 318 318 318 319 319 320 320 318 316 315 313 310 312 314 313 316 318 313 312 318 322 323 320 316 314 313 311 310 309 311 311 311 311 310 311 310 310
317 315 314 313 313 313 314 317 318 319 319 320 322 322 321 320 319 320 323 324 324 318 316 317 317 319 318 316 316 317 319 317 314 311 309 311 313 313 315 314 315 317 315 316 317 317 317 314 315 318 317 319 319 317 318 319 321 323 319 314 313 312 311 315 317 316 318 320 314 311 315 320 322 320 318 316 315 314 311 310 311 310 309 310 310 310 310 310
316 315 313 313 313 313 316 317 317 318 320 320 320 320 321 320 319 320 323 324 323 319 317 318 318 318 318 317 316 319 323 317 311 310 310 312 312 312 316 315 315 316 313 315 320 318 316 315 316 317 318 318 318 318 317 317 320 322 317 314 314 312 312 316 316 315 318 318 314 312 312 315 316 314 316 316 314 315 313 311 311 310 310 310 309 309 309 310
316 314 314 313 313 314 315 316 318 319 320 320 319 319 320 320 319 320 324 325 323 319 318 317 315 315 316 315 315 318 318 315 315 313 309 310 311 312 315 315 316 316 312 317 323 318 314 317 318 317 319 318 318 319 318 316 319 318 315 315 316 315 317 319 318 317 317 315 316 315 312 314 317 319 320 316 313 315 316 313 313 312 311 310 309 309 309 309
315 314 314 313 313 314 314 316 318 318 318 319 319 318 318 319 320 322 325 326 321 318 319 317 314 314 315 314 314 314 313 316 318 313 308 309 309 310 315 315 314 314 313 316 320 316 311 314 316 316 318 318 319 321 318 316 317 317 318 319 319 321 322 320 319 318 316 315 317 317 314 314 319 323 321 314 312 314 315 315 315 313 312 311 310 310 309 309
315 314 313 313 315 315 315 316 317 317 318 319 318 317 317 320 323 326 327 324 320 317 317 316 315 315 316 315 314 314 315 316 314 311 312 313 309 308 310 311 312 314 314 313 316 315 310 311 313 315 316 316 318 319 316 317 317 316 319 318 318 324 325 324 324 317 316 320 318 315 315 313 317 322 318 315 316 316 315 315 314 313 313 311 310 310 309 309
315 314 314 314 315 316 317 317 318 317 318 319 317 316 320 322 323 328 327 321 319 317 315 316 316 316 317 317 315 315 314 314 312 311 313 313 309 308 309 311 313 315 315 314 315 312 309 311 313 314 314 313 315 315 312 315 317 316 317 316 316 322 322 324 326 320 319 321 315 313 316 313 314 318 316 314 315 313 313 314 315 315 316 314 312 312 310 309
314 314 314 314 315 316 316 318 318 318 317 318 317 318 323 324 322 326 324 319 320 317 315 316 316 317 318 317 316 315 313 314 313 313 314 313 310 309 311 314 314 316 316 316 315 313 312 314 314 311 311 311 315 315 313 314 315 315 316 316 317 320 321 322 323 321 321 319 311 311 314 313 313 315 314 312 311 312 312 311 313 314 314 314 314 314 312 311
314 314 314 314 316 316 316 317 319 318 317 317 319 321 324 324 323 323 320 319 320 317 315 317 316 317 318 317 315 313 313 315 314 315 315 314 310 309 312 314 313 317 318 315 315 314 314 315 312 310 310 310 314 315 314 313 314 314 314 316 319 320 322 322 321 321 322 320 312 308 311 314 316 316 315 313 311 313 313 310 310 310 310 311 310 310 310 310
314 314 315 315 316 316 315 317 318 317 316 317 321 323 324 325 322 320 317 316 317 316 316 317 317 318 318 316 314 313 315 315 314 315 315 313 312 310 311 312 312 316 317 315 315 315 315 316 314 313 312 311 312 313 314 314 314 313 313 316 319 320 322 324 323 322 324 322 313 308 313 319 320 316 313 312 313 314 314 312 310 308 307 307 307 308 310 310
314 314 315 315 316 316 316 317 317 316 317 319 322 323 325 325 320 318 317 314 315 316 316 317 317 318 317 314 313 313 315 314 313 315 314 313 313 311 311 310 310 314 315 315 315 313 314 315 313 312 311 311 311 311 313 314 314 314 313 314 317 319 323 323 320 317 318 319 315 311 316 320 318 315 311 310 313 314 314 313 312 312 308 307 312 313 313 314
315 315 316 316 317 316 316 317 317 316 318 320 322 323 324 322 318 317 317 313 314 315 316 317 318 319 317 313 313 313 313 314 314 314 314 313 313 312 312 310 309 311 314 315 316 314 314 315 312 311 310 310 312 313 312 314 316 315 313 313 314 317 320 319 317 314 312 317 318 314 315 317 315 314 314 314 314 313 313 313 313 314 312 314 319 317 317 319
316 316 316 317 317 316 315 317 317 317 318 320 323 323 321 320 317 316 316 314 315 315 317 319 318 318 317 314 314 313 313 314 314 315 315 314 313 312 311 311 309 309 312 314 315 314 316 315 311 313 313 309 311 314 311 313 316 315 314 315 313 315 319 317 317 316 313 317 320 315 313 315 314 316 319 317 314 314 314 313 313 314 314 317 319 316 316 317
316 316 317 317 317 315 316 317 317 317 319 321 322 321 319 318 317 316 315 315 315 316 318 320 319 318 317 316 315 312 314 316 315 316 315 314 316 314 311 310 309 308 311 314 315 314 317 317 311 312 314 310 310 313 312 311 312 312 316 318 315 317 319 316 316 319 317 317 320 319 314 312 312 317 318 314 313 314 313 311 311 311 312 315 316 317 316 314
315 317 319 317 316 315 316 317 317 318 320 322 322 320 317 316 315 315 314 314 315 317 318 319 319 318 317 317 316 313 315 316 314 316 316 315 317 315 310 310 310 309 311 314 315 314 318 322 315 310 312 312 311 312 313 312 310 311 314 315 314 315 317 317 317 320 321 317 319 323 320 315 314 316 316 313 311 312 312 311 312 314 314 314 314 314 314 313
316 318 319 316 315 315 316 316 317 319 320 322 321 318 316 315 314 314 314 314 315 317 318 318 318 319 317 317 316 313 315 316 314 316 317 315 315 313 311 311 309 309 312 314 314 313 314 319 318 311 309 313 315 315 315 315 313 312 314 313 312 312 315 318 317 317 320 319 318 319 319 319 318 315 313 312 312 312 313 312 314 317 315 313 310 309 310 309
317 318 317 314 315 315 315 316 319 319 318 320 320 316 314 314 313 313 314 314 315 315 317 317 318 318 317 317 316 314 315 315 314 316 316 315 315 314 312 310 308 308 311 312 313 314 314 316 318 315 312 315 319 318 317 316 313 314 315 314 313 313 316 317 316 316 316 317 320 318 315 318 320 315 311 311 312 312 313 313 315 318 315 313 311 309 308 306
316 318 315 314 315 315 315 318 320 318 316 318 317 313 313 313 312 313 314 314 315 316 316 316 316 317 316 316 316 314 314 314 314 316 315 314 315 314 311 309 308 308 310 311 312 316 318 319 321 319 317 318 316 311 310 312 313 314 315 315 314 314 314 315 320 321 316 315 318 317 314 314 316 319 319 317 315 312 313 315 319 320 317 314 312 310 309 307
314 316 314 314 315 315 317 319 318 316 316 315 313 312 312 312 312 313 314 313 315 317 316 315 315 315 315 316 315 314 314 314 314 315 314 314 315 313 311 309 309 309 311 311 311 314 315 317 321 320 319 320 315 309 308 310 313 314 314 314 314 314 314 318 325 325 318 317 315 313 314 313 312 321 323 318 316 313 311 314 318 322 321 315 312 313 313 312
312 315 314 314 315 315 318 319 317 316 314 313 312 311 311 311 312 313 314 314 314 315 315 315 315 315 315 315 315 314 314 314 314 313 313 314 312 310 310 310 310 310 310 310 312 313 312 315 319 319 318 320 317 312 311 311 312 316 317 316 316 315 315 317 319 317 314 318 318 315 316 312 311 319 319 314 313 312 312 313 314 318 320 316 314 315 316 317
314 315 315 314 314 316 319 318 316 314 313 312 311 311 311 311 312 313 314 314 314 314 315 315 315 315 314 315 314 314 314 315 314 312 312 313 311 309 310 311 310 310 311 313 313 312 315 316 316 317 317 318 317 315 315 315 314 317 321 319 316 315 315 314 314 314 313 316 317 315 315 313 313 317 319 319 319 314 312 314 313 313 315 316 317 320 323 324
315 316 316 315 315 317 319 317 315 313 313 313 311 310 311 311 312 313 314 314 315 316 317 316 315 314 314 315 315 314 315 314 313 312 312 313 311 308 309 311 312 311 314 317 313 313 319 318 313 314 316 314 315 316 317 317 315 316 318 317 314 313 313 313 313 314 316 316 315 314 314 316 318 318 318 321 319 315 313 313 313 315 318 318 318 321 326 327
315 315 316 316 316 318 318 316 315 314 315 314 312 311 312 312 313 314 313 314 315 316 315 314 314 314 314 315 315 314 314 313 313 313 311 312 312 309 308 310 312 314 317 317 312 314 320 317 312 314 314 314 318 319 317 316 315 315 316 315 315 314 314 315 314 314 317 317 315 314 314 315 315 316 316 316 314 314 314 313 314 316 316 315 316 322 330 334
313 314 315 315 316 318 317 314 314 315 316 316 313 312 312 312 313 314 314 314 314 314 314 313 314 314 314 315 315 315 314 313 313 313 312 312 312 310 308 308 309 313 315 313 311 313 315 314 313 313 314 316 321 320 317 316 315 315 316 316 315 315 315 314 313 313 315 315 313 316 319 316 313 314 315 314 313 312 312 313 315 314 313 312 315 325 333 334
312 312 312 312 314 317 317 314 314 315 316 316 313 311 312 312 313 314 313 313 313 313 314 314 314 314 314 314 315 315 315 314 313 313 311 311 310 309 309 309 309 312 313 311 311 313 314 314 313 312 311 313 316 315 314 315 315 315 316 316 315 315 314 313 312 312 313 314 313 314 317 315 314 316 315 313 313 312 312 315 315 315 315 314 315 322 327 328
312 313 311 311 313 316 317 314 314 315 315 314 312 311 312 313 313 313 312 312 312 313 314 314 314 314 314 315 316 315 314 315 315 313 310 310 310 309 310 310 311 312 313 311 310 310 312 314 312 312 311 311 313 314 314 314 314 315 316 316 314 313 313 312 312 312 313 313 311 312 314 312 313 317 316 313 314 314 315 315 314 313 314 313 313 316 319 322
309 312 311 312 312 315 317 315 315 316 315 314 313 311 311 312 313 313 313 313 314 313 313 314 314 314 313 314 316 315 315 315 314 311 309 310 310 309 310 311 311 311 312 311 311 311 313 313 311 314 315 312 311 315 315 312 312 315 316 315 313 312 312 312 312 312 312 312 312 313 312 311 313 315 313 313 315 314 314 313 313 313 313 312 313 314 315 317
308 311 311 313 313 314 317 316 316 316 315 314 313 311 311 312 313 312 313 314 316 315 315 314 313 313 313 315 315 315 315 314 312 310 310 310 310 310 311 310 310 311 312 312 314 315 315 315 314 315 317 312 310 313 316 314 312 314 315 313 312 311 311 311 312 312 311 311 313 312 311 314 318 316 312 313 314 314 313 312 312 312 312 312 312 314 315 314
Wind_Speed
22 22 23 25 27 29 27 27 29 31 34 37 37 38 38 37 37 37 37 37 35 34 34 33 31 28 27 25 25 24 24 23 19 17 14 13 17 13 12 14 13 13 12 11 10 7 4 8 9 10 6 5 5 4 7 5 1 3 3 3 1 3 3 4 6 6 3 2 3 5 5 9 5 2 2 2 4 3 1 3 4 3 3 1 3 4 23 29
22 21 22 24 26 30 29 26 29 32 34 38 39 40 40 39 38 38 38 37 35 35 35 33 31 29 27 26 25 24 22 20 13 11 13 14 15 13 13 14 13 13 12 11 11 10 7 5 8 12 7 3 2 4 6 4 2 2 2 2 3 5 4 4 5 4 2 2 1 4 4 5 6 5 4 3 1 1 3 4 4 3 4 3 3 14 26 29
23 21 21 23 24 28 30 28 29 31 34 38 40 40 41 41 40 39 38 38 37 36 37 34 32 29 27 26 24 23 18 12 6 7 14 15 13 15 15 14 14 14 12 12 12 11 11 11 12 10 4 2 1 2 4 4 1 1 3 1 4 5 4 3 4 4 4 3 1 3 1 2 4 5 4 4 4 3 6 6 2 5 6 0 6 17 24 26
23 22 22 23 24 25 29 30 29 30 34 38 41 41 41 42 41 41 40 39 38 38 38 35 33 29 26 25 22 20 13 6 3 10 16 17 15 17 16 15 16 13 11 11 11 11 14 16 14 7 3 3 2 2 2 3 1 1 3 3 4 2 3 3 2 4 5 3 2 2 3 2 4 3 4 7 6 4 7 9 9 10 9 7 8 14 21 23
23 23 23 23 24 24 26 29 30 30 34 38 42 42 41 43 42 42 42 41 39 38 38 35 32 28 26 23 20 18 12 4 6 13 19 18 17 18 16 16 15 13 13 15 15 15 17 16 11 5 3 2 1 2 2 4 1 1 2 3 2 2 2 4 2 1 3 2 1 2 3 4 3 2 5 10 8 6 6 9 11 9 10 13 13 16 19 19
24 24 24 23 23 25 25 27 29 30 32 37 42 43 43 44 43 43 43 43 41 39 38 35 32 28 25 21 18 18 11 2 2 9 22 21 18 18 17 16 15 14 15 19 22 20 15 10 7 5 2 3 4 4 1 4 1 1 2 1 2 3 2 5 4 2 2 1 3 3 4 3 4 4 3 9 10 4 3 6 9 8 10 16 18 17 16 17
25 25 25 24 24 25 25 26 28 29 30 35 41 43 45 45 45 44 43 44 42 40 39 35 32 27 23 20 16 13 7 5 1 5 21 25 21 19 17 17 18 18 17 21 23 15 10 8 5 5 4 3 4 6 3 3 2 1 2 3 2 4 4 5 5 4 2 5 6 3 1 4 8 6 2 7 11 1 6 4 7 10 12 15 16 15 16 19
26 26 27 26 26 26 26 27 27 28 30 34 40 43 45 46 46 45 44 44 42 41 39 36 33 26 24 21 12 6 4 7 1 3 19 26 23 21 20 19 20 20 20 23 22 14 9 9 6 4 3 2 4 6 4 2 1 2 3 2 4 3 4 6 5 5 4 6 4 3 3 4 7 4 2 9 10 1 4 3 7 10 12 12 12 13 15 17
26 27 28 28 27 27 28 28 27 29 30 34 40 43 45 46 47 46 46 45 42 42 40 37 32 26 26 19 8 3 7 9 3 4 20 27 24 24 22 20 22 22 21 21 21 19 11 7 6 5 3 2 4 6 3 3 3 2 3 2 5 4 5 5 5 3 2 3 3 5 6 4 2 2 3 9 7 3 4 6 5 8 10 10 11 12 14 15
28 28 29 29 29 28 29 29 29 29 30 33 39 44 46 47 47 47 46 45 43 42 40 37 32 29 27 16 7 5 8 10 8 8 20 26 24 25 22 21 23 22 18 15 17 19 10 7 8 5 4 3 3 4 2 4 3 1 0 3 6 6 6 3 3 4 2 2 4 6 5 4 2 1 5 6 2 5 7 6 4 6 9 11 10 11 15 16
29 29 29 30 30 30 30 30 30 30 31 33 39 46 49 48 47 46 45 45 44 42 40 36 32 31 25 14 8 7 7 12 12 13 22 26 25 25 22 21 22 21 18 12 13 17 12 14 16 7 2 3 3 3 1 4 3 0 2 4 7 8 7 3 4 5 1 1 5 6 3 3 2 2 8 4 1 4 7 6 5 6 7 8 10 9 12 15
30 30 30 31 31 31 31 32 31 31 32 33 37 45 50 49 48 47 45 43 41 40 39 36 34 32 21 10 8 7 6 13 14 16 23 25 25 24 21 21 20 20 19 13 13 15 13 20 20 7 2 6 5 2 3 4 4 1 1 2 6 9 7 5 4 2 3 2 5 6 1 3 2 7 9 3 3 4 6 6 5 7 6 6 8 7 9 13
31 31 32 33 33 33 32 33 32 32 33 32 35 43 50 49 49 48 45 43 41 40 38 36 36 31 18 5 7 9 7 12 18 20 24 26 23 20 20 21 20 20 22 20 19 16 15 22 18 6 3 6 4 2 2 3 3 0 2 1 3 6 6 5 2 1 4 3 4 4 3 5 7 12 6 3 5 7 6 6 6 6 6 6 6 6 7 11
32 33 33 34 35 34 34 34 32 33 33 31 33 42 50 49 50 49 46 43 41 39 37 37 37 27 14 3 4 10 10 13 23 26 27 27 22 18 18 19 17 17 18 20 22 16 15 19 14 7 3 2 2 3 3 3 1 1 1 0 1 1 5 4 1 2 3 2 4 4 4 5 9 11 5 4 6 9 8 7 7 7 6 6 6 7 7 9
34 35 35 35 36 36 36 36 34 34 34 33 34 39 48 50 50 50 47 44 42 40 37 37 34 19 7 4 3 9 12 15 24 30 29 28 24 17 14 16 14 13 13 16 19 15 15 16 10 6 2 1 3 4 3 3 2 2 2 1 1 3 5 6 1 6 5 1 3 6 4 5 9 9 5 5 6 8 9 8 7 8 7 7 6 7 7 8
36 38 38 38 38 38 38 38 36 35 35 34 34 35 44 52 53 51 48 45 42 41 36 29 28 18 5 3 5 10 12 14 23 28 27 28 27 19 16 18 14 13 12 13 18 16 15 11 4 3 3 2 3 4 4 1 1 1 1 3 1 2 2 4 3 5 7 2 0 4 3 3 6 6 3 1 6 7 7 8 8 8 8 8 6 7 8 7
39 40 41 41 41 40 40 40 38 37 35 35 35 34 39 50 55 51 47 45 41 42 36 25 26 17 2 3 9 11 11 12 21 26 24 24 26 24 21 15 11 14 13 12 16 13 8 4 1 1 3 2 3 4 3 2 3 2 1 2 2 3 2 2 3 2 5 5 3 4 4 6 7 6 4 1 6 6 7 9 8 7 7 6 6 7 7 8
41 43 44 44 45 44 42 43 41 38 36 36 36 34 37 46 53 50 43 41 35 33 28 18 20 12 3 8 9 10 15 18 24 26 22 21 25 26 19 11 11 15 13 7 8 5 2 2 1 2 2 2 3 4 5 4 4 4 3 4 3 4 4 4 4 2 2 3 4 5 5 9 12 10 6 2 5 6 8 7 5 6 7 6 7 7 8 8
43 44 46 47 48 47 45 45 43 40 38 36 38 39 38 39 41 41 41 37 23 16 12 10 14 6 2 10 9 12 22 26 26 23 21 23 26 23 16 14 13 12 9 4 3 2 2 3 2 3 3 4 6 7 7 5 6 8 6 5 5 5 5 4 4 4 1 2 4 6 6 9 12 13 10 4 5 6 8 6 5 6 6 6 7 7 8 9
47 45 47 49 51 50 47 47 45 43 40 39 42 37 26 23 18 15 22 26 17 6 5 14 16 3 4 7 12 18 22 23 19 16 22 26 25 20 11 11 9 5 6 6 5 3 3 4 4 5 6 7 9 7 5 5 6 8 6 5 5 3 3 3 3 5 1 2 4 5 5 9 12 13 10 2 4 5 6 7 8 8 7 7 8 8 9 10
54 52 51 53 54 53 51 50 47 45 43 45 45 25 10 16 13 9 13 16 16 5 4 15 14 3 4 10 20 25 17 12 10 13 24 28 23 17 7 7 9 4 4 6 5 3 2 6 6 5 7 8 8 5 5 6 6 6 6 4 2 2 2 4 3 5 2 2 4 2 3 9 11 13 9 2 5 7 8 9 10 10 9 7 7 9 10 10
62 59 56 58 57 56 53 51 50 48 46 48 40 16 10 18 19 27 25 14 14 5 5 15 13 5 6 14 27 29 14 8 9 11 20 23 17 12 7 8 10 6 4 6 5 3 3 6 5 6 7 8 7 6 6 6 6 5 4 4 2 1 2 4 4 6 3 2 4 3 2 8 10 13 11 5 6 7 8 10 10 10 9 7 8 10 10 9
66 63 61 61 61 59 56 53 51 49 47 45 32 17 19 19 20 33 23 9 11 3 3 11 9 8 9 10 22 24 14 11 13 13 18 19 11 8 10 10 10 8 7 8 7 6 4 4 7 8 8 10 7 6 6 4 5 4 4 5 3 0 1 2 3 5 4 1 2 2 3 6 7 9 11 8 8 8 8 9 9 8 8 10 11 9 9 9
61 63 64 64 65 60 56 54 49 47 48 44 34 29 28 22 28 36 15 5 8 3 2 7 5 9 11 9 16 16 9 7 10 15 20 18 9 7 9 9 10 9 7 10 9 7 3 1 7 9 8 11 8 7 8 5 3 3 2 4 4 1 1 2 3 5 4 3 2 1 4 6 6 8 10 6 4 7 8 7 9 9 9 10 9 8 9 11
56 63 67 69 65 61 59 50 43 46 46 38 33 36 33 26 35 40 17 3 5 2 4 7 1 7 14 10 10 10 5 3 2 13 20 18 13 10 6 4 6 8 8 8 7 5 2 2 6 9 8 9 9 8 9 8 5 3 3 5 6 4 2 4 6 6 5 4 4 2 3 5 4 6 10 5 3 7 6 7 11 10 9 8 7 9 10 10
56 63 70 70 66 66 52 30 37 48 37 27 29 36 38 35 37 33 14 2 5 3 7 10 5 12 18 8 5 8 8 2 1 10 18 16 13 10 8 3 1 5 8 6 3 2 1 0 4 8 8 8 8 8 8 9 6 2 5 7 7 4 1 5 5 5 2 4 4 0 2 6 5 5 7 4 6 9 6 7 10 10 8 8 8 10 10 10
56 64 71 70 69 66 36 17 38 41 21 22 32 40 44 46 40 23 8 1 6 5 8 7 5 14 17 9 12 11 7 6 5 7 12 11 9 5 8 8 3 4 6 5 2 2 4 5 4 6 7 7 7 6 6 9 6 2 5 10 9 5 2 2 3 3 2 4 4 1 2 4 5 6 6 2 5 10 9 8 9 9 9 9 10 11 11 12
59 68 71 70 71 67 44 31 36 26 22 32 36 42 49 52 39 16 5 5 4 6 7 3 5 14 11 6 10 6 6 14 11 7 8 8 7 4 6 10 8 9 8 7 6 2 5 10 10 9 7 6 5 5 8 9 5 3 4 8 8 6 4 2 4 1 2 3 5 3 1 3 6 6 4 2 5 10 10 10 9 10 11 11 12 13 12 13
65 70 69 72 69 68 61 45 33 32 42 43 41 45 53 51 30 7 3 5 3 5 6 6 7 11 9 6 3 3 9 10 6 7 6 4 4 5 5 8 9 12 8 5 6 2 2 8 11 11 7 6 5 6 9 10 4 2 5 7 4 5 4 3 3 2 2 3 7 4 2 3 6 5 2 2 5 8 9 8 8 9 11 11 11 12 12 11
70 70 71 73 61 59 55 38 37 46 46 46 50 48 46 34 15 5 8 5 4 3 5 6 7 10 14 10 3 6 11 5 3 10 4 1 4 5 4 5 7 9 5 2 4 2 2 0 4 6 5 5 6 5 7 10 7 4 6 6 5 3 4 3 2 3 2 5 6 3 4 3 5 5 5 5 5 7 7 7 8 8 9 10 10 10 11 9
72 69 73 71 57 55 40 21 35 46 42 53 57 41 27 14 4 8 11 4 5 5 5 8 9 14 19 15 8 9 9 7 10 14 7 3 4 4 6 5 4 5 3 3 1 2 4 4 2 2 2 5 6 3 2 5 7 6 4 4 3 1 3 3 2 3 2 7 3 1 3 5 6 6 3 6 6 4 7 7 9 10 10 10 8 8 8 7
71 70 74 70 59 57 39 25 40 46 47 59 50 23 12 8 4 7 7 5 6 7 9 13 14 16 18 16 12 10 9 9 13 15 14 10 6 7 9 7 6 5 4 6 3 1 2 1 3 2 1 5 7 4 2 2 5 4 4 5 4 2 1 2 2 1 5 5 1 1 3 3 8 7 6 9 8 8 8 8 10 11 9 10 8 7 7 5
70 70 72 68 58 54 47 43 48 51 54 52 33 12 9 9 7 4 5 4 5 7 11 16 19 21 21 16 11 10 9 9 13 14 13 11 8 6 3 5 9 6 3 7 5 3 1 3 2 1 1 3 8 7 4 3 6 7 6 6 6 4 3 5 4 1 5 5 2 2 2 4 7 4 8 12 11 10 8 8 10 10 10 11 8 6 7 7
70 69 67 63 56 53 49 46 50 58 55 35 17 13 13 9 5 7 6 3 7 10 11 15 19 20 16 12 12 11 7 6 12 12 10 10 9 7 5 7 10 5 5 7 4 5 5 2 4 4 2 4 7 8 6 6 7 8 5 4 5 5 4 5 4 3 4 4 2 1 1 4 3 2 7 9 9 9 6 7 8 8 9 9 8 8 8 9
69 66 62 55 51 50 47 46 55 62 45 18 10 14 15 8 4 7 7 4 8 11 11 14 19 16 10 8 10 9 4 5 11 10 10 12 10 11 9 9 11 7 7 8 3 4 5 2 4 2 2 8 9 6 5 8 5 4 4 3 4 5 4 3 3 3 2 2 2 3 3 4 3 6 8 4 6 8 7 7 7 8 8 5 6 9 8 9
62 57 52 44 43 46 46 50 61 59 33 13 10 11 10 6 5 7 8 9 12 15 16 15 14 13 9 7 8 5 2 6 12 9 7 10 9 11 10 7 10 10 8 8 3 3 5 1 3 1 2 6 8 7 6 7 5 2 4 5 4 3 5 4 1 1 3 2 3 2 5 5 3 8 8 4 6 8 7 7 7 9 8 4 7 9 8 9
47 41 36 31 39 46 48 55 59 46 23 13 12 9 5 3 5 10 12 15 18 20 19 13 9 9 9 9 8 9 8 8 12 10 7 8 7 11 13 8 11 13 10 6 2 3 6 2 3 2 4 2 2 6 4 3 5 5 6 6 2 1 2 3 1 2 1 4 4 1 6 5 2 6 6 6 7 8 8 7 6 8 7 6 8 9 8 8
35 30 21 24 44 48 50 60 52 30 14 13 14 8 4 3 6 11 14 18 20 19 16 10 8 9 11 13 12 15 16 12 13 12 9 10 6 10 16 9 8 12 9 5 3 1 5 4 3 1 4 1 3 5 3 1 1 3 5 5 4 2 2 2 2 3 2 4 4 3 4 4 6 6 4 6 7 7 9 9 8 9 7 6 8 9 9 7
29 20 9 25 51 50 55 59 38 16 11 15 15 9 3 4 7 12 17 21 19 17 15 11 10 10 11 15 15 17 16 13 16 12 9 10 5 8 18 9 5 12 9 5 5 1 3 5 1 3 2 3 3 2 6 3 1 2 2 3 2 1 2 3 3 2 2 3 3 3 4 4 6 6 4 7 9 9 11 10 7 8 8 6 7 8 8 7
18 10 5 32 54 53 58 47 21 11 11 13 14 8 5 6 8 14 19 22 18 10 11 14 14 13 13 13 12 13 10 9 16 11 6 9 3 4 14 10 8 13 10 7 6 3 2 3 2 1 1 3 2 3 7 7 3 3 4 4 4 2 1 1 2 2 3 3 2 2 4 6 4 4 9 11 10 11 11 6 4 7 8 7 7 7 8 8
12 7 5 35 57 54 48 24 8 11 7 8 13 8 8 9 10 14 16 17 14 3 6 15 15 13 15 14 12 12 9 8 14 9 3 8 6 2 9 11 12 12 9 8 6 4 2 3 4 3 1 3 3 3 5 7 7 6 6 6 7 5 3 2 3 1 2 2 4 2 6 9 4 4 6 8 9 10 6 2 4 8 8 8 7 6 7 8
9 9 8 39 60 51 31 9 5 11 6 7 10 6 10 11 12 17 16 14 10 3 5 11 10 9 11 13 13 13 10 8 14 11 3 8 8 3 7 13 14 13 10 8 6 4 3 4 5 2 3 5 3 2 1 2 3 4 3 5 6 6 5 5 5 3 0 3 2 3 5 7 3 6 7 7 8 7 4 3 6 8 7 7 8 7 7 7
5 8 14 44 61 43 21 9 8 9 5 7 10 8 11 11 13 17 15 13 9 4 7 9 9 10 10 10 12 14 11 8 10 8 4 6 6 4 10 18 17 14 10 7 7 5 3 4 4 1 3 3 3 3 2 2 2 2 2 2 4 5 5 5 5 3 2 4 2 1 6 5 1 2 5 5 5 4 3 4 6 8 7 7 7 7 6 6
3 6 10 37 56 39 17 10 9 8 7 9 11 11 8 8 15 18 16 16 11 7 11 11 11 12 10 10 13 17 15 8 6 5 4 6 4 5 15 21 20 16 10 8 9 6 3 3 4 4 3 4 4 2 3 2 1 2 2 3 4 4 4 3 2 3 3 6 7 4 9 5 1 4 5 5 5 5 5 5 6 7 7 7 7 7 6 5
5 6 4 19 35 28 12 8 9 9 11 13 13 13 11 8 13 18 20 16 8 9 11 8 10 10 9 10 11 12 12 6 6 5 3 5 3 3 14 22 22 17 10 10 11 7 5 5 5 6 5 5 5 5 6 4 2 2 3 7 8 8 9 7 3 4 9 8 10 10 10 2 3 6 6 6 7 6 6 5 4 6 7 7 7 6 5 5
7 5 7 9 13 16 10 6 9 10 13 16 12 11 14 13 10 14 18 11 2 6 6 4 10 11 9 13 12 11 10 5 7 8 6 8 5 2 11 19 19 15 12 15 16 8 3 3 6 9 10 10 9 6 5 9 7 7 7 9 10 8 9 7 5 8 7 4 8 14 11 4 5 6 7 7 6 6 6 4 4 6 7 7 7 6 6 5
5 3 10 8 6 13 11 7 10 10 13 17 12 10 15 16 11 10 11 5 2 6 6 4 12 13 14 19 15 13 13 5 6 11 11 9 5 3 7 12 13 14 15 16 15 8 4 4 11 13 11 8 6 5 8 11 11 10 8 8 10 8 9 10 12 12 5 3 10 10 7 9 9 5 7 9 7 8 9 8 6 6 7 6 5 6 6 7
3 2 7 3 2 10 11 9 11 12 15 15 10 13 19 18 16 13 7 2 4 9 6 5 13 17 20 23 17 14 14 7 5 12 12 8 6 7 6 3 4 8 11 13 11 7 5 7 10 12 9 4 3 5 10 11 9 9 10 11 12 12 14 16 19 14 6 7 16 7 7 11 8 5 8 10 10 10 9 8 7 6 8 7 6 7 7 8
3 3 2 3 3 12 15 12 13 15 16 12 6 11 20 20 19 16 10 7 8 11 11 12 19 22 23 23 17 14 16 14 12 14 14 13 13 12 10 4 1 1 5 9 7 2 4 5 3 7 7 2 2 3 5 7 7 7 10 14 15 17 20 20 20 16 11 18 20 9 9 12 5 7 11 10 9 8 5 6 7 7 9 8 6 7 8 8
5 5 4 3 3 12 18 15 14 14 13 11 8 10 15 21 21 15 10 13 16 16 15 18 24 25 26 25 20 19 25 26 21 17 16 16 14 12 10 6 3 3 4 6 4 1 2 2 1 5 5 1 1 4 5 5 6 6 9 13 17 19 20 18 15 11 11 19 18 12 17 16 5 7 9 7 6 6 6 9 8 8 10 9 7 8 8 9
2 5 7 6 3 8 15 14 14 14 11 10 11 11 14 20 22 16 7 6 13 17 18 22 24 20 20 23 24 24 25 21 18 18 20 19 16 13 8 6 8 8 5 5 5 2 3 2 2 6 5 4 1 5 6 6 4 1 10 16 18 16 14 12 11 11 14 19 14 10 15 12 5 6 5 4 5 7 10 11 9 9 10 8 7 8 9 10
3 6 6 7 6 8 13 12 12 14 12 10 12 13 16 19 19 17 9 0 3 7 10 16 20 15 14 21 24 19 13 12 13 14 13 14 14 11 8 12 19 17 11 9 6 4 6 6 2 5 7 4 2 5 8 6 3 6 14 17 16 13 11 9 11 15 18 15 10 11 13 6 4 6 6 7 9 10 10 10 10 10 9 7 8 9 10 11
Wind_Direction
242 241 242 241 234 228 230 231 225 219 215 214 211 206 201 199 196 196 198 197 198 196 195 196 195 194 191 189 188 185 184 182 177 178 183 196 203 208 203 198 196 195 200 204 209 198 108 67 72 72 53 20 4 334 347 341 33 32 74 108 192 179 197 183 185 202 175 280 251 241 208 166 188 199 169 98 61 65 155 295 305 296 315 254 305 154 161 165
242 240 242 242 238 230 229 233 228 221 215 212 210 207 202 199 197 197 197 195 194 193 191 191 188 184 180 178 177 175 175 173 170 180 188 191 196 201 195 190 192 192 192 196 197 180 134 91 84 75 59 43 353 347 357 338 45 68 114 116 223 197 217 196 181 204 197 318 252 236 252 193 193 164 155 184 218 100 164 254 326 301 294 6 114 149 156 161
241 240 241 241 241 234 228 230 232 225 216 211 210 206 202 199 197 196 196 194 192 190 188 186 183 178 174 172 169 169 166 155 164 203 194 185 181 181 177 178 179 181 188 193 194 182 159 140 112 88 62 56 24 359 3 332 360 126 125 91 241 211 253 233 186 221 240 289 264 228 254 240 221 154 158 180 179 179 195 219 219 237 246 166 143 151 156 161
240 238 239 240 242 239 231 227 230 228 218 211 209 205 200 198 196 195 196 194 191 188 187 185 182 179 176 172 168 167 146 103 228 212 193 183 175 171 165 165 163 165 176 177 178 174 150 128 109 88 90 89 13 30 6 308 324 135 147 191 228 191 277 271 199 246 260 268 250 199 122 234 236 155 169 148 145 236 235 220 203 205 199 171 165 160 160 163
240 237 236 239 241 242 238 229 227 229 220 211 208 204 199 198 196 195 195 194 191 188 187 186 185 181 177 173 171 163 129 78 240 204 194 185 177 176 169 164 158 156 157 150 145 142 135 121 106 83 81 105 78 73 317 291 36 201 208 198 210 125 283 292 347 297 287 285 222 145 167 208 189 173 182 160 178 229 237 223 208 199 178 167 166 166 166 168
240 239 236 237 240 240 240 233 227 228 224 213 205 201 199 199 197 195 195 193 191 189 189 188 185 181 177 173 170 162 144 172 245 189 197 195 185 180 176 174 164 160 155 140 132 129 126 119 117 123 115 108 141 151 227 289 343 226 264 357 208 161 222 287 336 322 305 255 188 185 215 167 153 230 186 179 208 222 291 240 199 186 173 167 162 164 171 174
242 241 238 236 237 238 240 238 229 228 228 215 205 201 200 200 197 196 195 193 193 191 189 188 185 181 176 169 168 164 173 220 31 166 193 196 195 185 177 179 171 166 158 138 131 129 128 134 140 132 128 113 161 167 160 271 320 188 241 340 256 202 228 271 298 287 248 214 222 206 186 158 189 220 106 209 223 247 339 280 168 159 157 162 163 170 180 180
244 242 240 236 237 237 237 239 233 229 228 217 207 203 201 200 198 196 195 194 193 192 190 188 185 180 174 167 160 159 207 221 187 156 184 185 187 182 175 175 175 174 166 153 145 142 136 143 153 126 140 154 172 168 149 212 240 213 218 308 288 255 273 284 294 284 241 222 222 167 209 220 201 181 123 233 236 295 4 55 129 140 145 164 175 180 185 185
245 244 241 238 237 237 237 238 236 231 228 220 208 203 201 199 196 194 195 194 192 192 189 187 184 178 176 166 136 160 210 211 199 165 178 178 175 173 173 169 173 175 169 166 161 154 148 157 169 151 151 153 168 166 142 185 205 208 187 290 299 311 319 320 328 328 296 252 168 174 233 263 219 147 254 250 227 177 85 84 120 137 152 176 183 187 188 188
245 244 241 238 237 236 237 237 236 233 231 223 210 203 202 199 195 193 193 193 192 191 188 187 184 176 176 162 133 195 210 198 192 176 176 176 169 167 172 170 172 172 163 163 165 160 161 168 157 138 114 110 171 153 130 182 179 169 180 306 296 314 327 350 329 314 330 285 183 189 228 259 299 169 244 271 200 151 113 106 146 154 172 182 186 194 192 194
245 244 242 238 235 235 236 237 236 235 231 224 212 204 201 198 195 193 193 193 193 191 189 187 182 177 174 162 167 203 198 183 179 173 176 177 173 173 178 178 176 175 163 156 171 173 173 160 141 120 109 129 151 132 192 191 125 314 299 305 297 320 326 352 317 286 329 270 187 167 209 260 340 232 226 244 141 154 134 142 168 177 192 189 191 197 195 201
244 243 242 238 235 234 235 237 235 235 233 229 219 204 198 198 194 192 193 193 193 192 189 185 182 179 170 166 197 201 189 183 174 173 179 180 180 182 185 185 186 187 177 167 178 180 173 161 146 130 167 142 140 155 222 175 130 283 356 316 313 339 321 308 318 259 133 198 185 146 238 271 218 231 233 190 133 120 129 160 181 191 202 198 199 198 203 208
244 242 242 239 236 233 233 236 234 235 234 232 225 203 195 196 192 190 191 191 191 189 186 183 181 178 169 183 211 193 193 184 176 176 179 180 179 178 179 181 185 190 190 183 177 176 170 165 153 128 130 135 148 163 125 112 131 258 46 71 331 347 299 284 332 187 143 177 179 149 252 263 235 238 233 147 144 124 139 186 192 202 207 202 205 204 212 211
245 243 241 239 237 232 231 234 233 234 234 232 225 202 192 193 190 188 189 189 188 184 183 181 179 177 177 213 213 196 198 179 177 176 174 175 166 156 162 170 175 179 187 181 171 170 169 161 138 104 96 119 152 136 80 32 65 121 73 46 342 263 271 282 113 131 161 190 139 144 237 261 256 249 216 175 163 148 180 204 195 208 209 203 207 207 217 214
248 245 240 238 237 232 230 232 231 232 233 231 226 207 192 190 189 188 188 187 183 180 180 180 178 174 179 240 226 190 179 168 176 175 172 171 157 143 151 158 160 163 169 170 165 165 161 149 121 112 120 64 122 112 67 10 34 90 191 227 252 218 276 304 236 161 174 281 103 148 225 264 265 260 225 195 177 169 198 209 204 211 207 206 209 210 218 222
250 246 241 238 235 233 228 229 230 229 230 228 229 220 197 189 188 187 187 185 180 178 178 178 181 179 178 209 172 164 162 166 178 174 170 172 163 146 141 143 138 144 151 154 155 152 148 138 103 127 116 93 132 110 80 33 345 349 203 194 210 201 275 312 282 186 161 130 187 187 219 262 267 278 318 191 180 183 207 217 214 212 211 210 209 214 217 224
251 246 242 237 234 232 226 227 229 226 227 224 225 223 202 189 184 183 183 181 177 176 176 178 182 183 179 159 164 168 164 166 175 169 165 173 167 147 137 132 121 127 126 130 143 140 133 126 91 137 89 99 144 122 127 214 228 307 6 199 232 195 197 265 280 258 139 140 211 217 220 241 253 268 320 348 170 181 216 225 223 214 218 217 213 219 220 222
248 244 239 235 233 230 225 225 226 224 223 219 219 215 197 184 178 175 173 169 167 171 175 179 176 177 231 197 178 163 159 159 165 164 160 166 162 149 138 127 120 119 107 110 138 119 70 64 66 133 100 114 143 157 191 209 189 190 189 199 237 220 214 245 264 268 141 154 208 210 223 249 260 268 276 234 155 180 221 239 257 232 223 225 222 224 223 226
246 242 236 233 229 227 224 221 222 222 217 217 214 202 186 176 171 169 163 157 159 172 173 173 176 181 207 189 165 142 157 159 157 157 155 155 153 145 133 128 128 123 122 135 151 130 118 93 75 169 168 170 177 188 194 179 165 177 191 198 212 225 236 250 268 284 215 172 231 222 226 245 253 262 260 229 159 191 230 263 277 245 227 227 228 230 229 229
248 240 234 231 226 224 222 218 219 217 213 211 198 187 180 170 167 170 159 158 169 173 153 169 177 166 69 143 141 134 146 147 145 151 154 153 147 135 126 133 126 121 144 144 152 158 143 153 186 189 180 181 188 191 174 162 161 163 176 200 209 222 274 289 299 306 283 179 255 233 234 253 251 259 263 214 151 206 235 244 247 244 233 225 226 231 231 231
252 245 235 229 223 220 218 215 216 213 212 207 189 179 183 173 169 165 149 165 177 127 102 159 151 118 106 137 140 134 130 128 132 153 156 154 146 136 145 152 137 149 154 124 128 124 146 185 191 180 172 169 176 169 142 145 143 148 165 186 220 200 263 286 291 307 302 190 266 268 235 261 261 264 272 139 156 223 224 222 238 240 235 232 231 236 237 238
257 251 234 223 219 216 213 211 212 210 210 206 194 184 190 186 175 161 150 162 183 123 98 145 123 97 131 142 149 142 128 123 136 161 164 158 154 154 163 158 150 152 138 119 114 124 185 210 184 166 157 147 159 163 154 157 144 143 147 149 224 253 278 283 296 321 325 184 261 315 264 261 263 263 264 217 200 237 223 212 229 232 233 235 228 235 240 247
258 244 224 216 213 210 209 208 209 208 207 206 201 186 184 196 177 158 144 138 167 116 95 152 135 128 131 151 164 153 141 150 156 171 175 165 161 163 156 158 154 139 149 160 156 159 189 219 177 159 144 141 159 177 169 174 165 161 138 143 194 322 27 251 307 321 303 229 256 322 313 272 265 270 267 235 213 241 235 218 230 229 225 230 228 230 230 235
247 229 213 206 205 205 205 204 203 205 205 208 208 192 181 184 167 153 127 71 151 125 134 153 124 140 150 164 172 168 158 155 155 163 173 168 149 148 153 152 145 140 167 173 167 172 176 200 159 146 149 153 159 181 180 184 194 195 163 147 154 126 288 257 313 313 312 341 315 336 333 285 254 260 266 255 214 248 249 233 245 240 228 236 242 238 225 224
230 215 203 198 199 199 199 198 198 201 204 210 211 192 177 171 165 155 131 57 162 128 141 153 117 160 162 159 168 175 141 89 149 159 168 167 146 143 147 134 142 152 168 161 159 188 217 232 155 143 161 164 162 185 189 185 189 221 205 153 143 149 339 331 330 343 5 346 312 350 320 276 280 266 256 263 255 251 246 232 243 244 236 238 243 239 232 231
216 204 196 192 192 192 192 192 196 198 201 215 206 185 173 165 163 156 130 81 190 166 153 164 189 165 159 162 160 144 124 115 289 151 160 163 150 146 143 133 96 145 157 145 143 199 198 233 147 152 164 162 174 196 193 176 164 219 203 153 142 149 15 338 351 25 34 286 298 30 232 268 307 282 254 271 269 260 256 242 247 250 245 233 233 237 234 236
208 197 190 187 187 185 183 183 192 192 199 212 192 172 167 163 161 157 130 195 203 164 149 162 189 164 160 169 164 153 146 147 125 154 171 160 148 136 139 151 133 139 152 130 164 222 140 134 147 156 157 164 189 197 181 164 147 227 198 155 158 167 195 282 47 74 224 283 302 220 194 272 285 264 264 312 286 277 274 258 255 254 249 238 234 238 232 233
201 191 186 183 183 183 183 183 183 189 205 198 175 159 158 158 160 158 157 205 188 138 141 145 144 148 145 146 161 161 136 136 134 183 194 148 134 93 131 160 147 150 164 153 179 217 141 167 178 167 166 188 192 158 154 154 148 235 180 151 164 156 157 158 79 61 277 322 290 262 126 266 264 268 303 334 251 263 268 261 254 246 244 240 237 239 235 236
193 186 183 180 180 183 188 186 180 192 199 184 162 152 151 153 158 157 201 201 137 122 142 146 139 139 131 109 127 152 136 135 135 164 169 129 99 70 133 158 132 144 169 158 160 174 164 189 179 163 175 193 164 139 154 157 160 197 119 104 99 100 99 94 85 46 6 299 258 239 188 250 268 260 264 292 243 243 257 263 254 243 244 241 240 243 242 242
185 182 179 175 176 182 186 189 189 192 188 169 156 149 143 148 161 182 202 185 110 131 138 148 155 150 150 133 117 167 144 121 121 133 138 107 80 52 100 112 100 135 167 115 129 187 311 139 151 160 186 177 145 140 163 162 152 120 96 85 74 62 48 50 56 55 18 275 261 216 183 205 281 261 210 221 221 207 225 252 260 256 255 248 241 245 248 250
179 178 176 173 176 180 179 189 191 185 174 161 153 145 140 149 184 192 197 160 108 149 139 142 149 150 157 148 144 167 138 119 148 144 150 162 117 102 121 116 86 107 140 171 177 333 19 68 142 220 195 134 112 105 143 151 141 114 98 116 119 30 20 21 354 51 210 248 269 251 149 158 245 259 222 241 247 221 217 232 249 250 252 255 245 246 253 256
176 175 173 175 178 179 179 186 180 172 165 157 148 143 157 164 197 191 180 149 147 168 149 144 151 156 163 155 148 158 138 137 159 158 160 160 149 155 153 159 157 128 163 189 174 15 28 156 217 273 232 144 129 125 93 134 156 143 139 145 142 137 122 215 234 184 232 243 205 170 144 186 246 251 247 258 265 257 234 223 240 245 253 264 258 253 258 259
173 171 172 177 178 180 184 181 172 164 160 156 148 151 174 180 202 155 126 162 155 152 152 150 158 162 162 157 148 144 134 146 164 164 160 151 144 158 160 164 161 144 160 163 142 143 205 284 236 126 314 175 147 151 161 169 178 176 168 165 163 152 166 207 205 209 250 254 208 156 157 261 277 264 234 239 248 254 243 229 240 245 253 262 267 272 274 271
170 170 173 177 179 183 183 175 167 160 157 158 157 161 172 193 194 122 128 175 128 135 153 150 154 159 155 148 151 149 130 145 166 159 151 148 151 171 191 191 177 129 103 143 161 167 162 248 218 172 198 182 160 170 165 141 168 185 165 143 170 171 173 193 195 216 242 263 256 173 180 221 229 258 233 226 250 272 267 250 251 251 253 263 283 286 276 272
168 170 172 175 180 184 179 168 164 160 157 163 172 173 179 181 142 138 148 139 126 134 137 138 147 151 142 138 158 166 134 153 168 157 158 166 171 179 182 188 182 146 128 160 179 155 152 232 241 211 182 166 166 180 143 120 152 193 154 151 205 192 151 147 193 208 195 291 256 204 232 219 204 276 271 243 268 279 271 269 273 268 265 271 279 276 269 267
166 170 172 173 178 181 175 166 163 161 160 170 182 188 183 155 143 157 149 147 147 137 132 142 154 151 140 141 164 173 104 150 163 158 172 176 178 186 181 180 181 170 158 157 137 140 151 242 274 49 105 166 165 166 162 157 159 144 170 199 218 170 129 117 238 333 78 255 255 195 247 281 319 286 288 322 306 290 277 271 269 270 280 290 269 264 261 263
165 169 170 172 175 176 172 166 165 164 165 178 193 194 159 135 159 153 151 155 147 140 141 149 164 159 144 146 169 171 143 139 162 167 173 176 190 196 188 186 181 178 174 147 109 179 150 120 303 92 124 192 138 127 148 168 143 144 194 199 144 114 123 103 264 319 87 238 274 230 243 273 281 266 308 351 318 297 288 278 273 277 281 279 272 267 262 265
163 164 165 171 171 171 168 166 167 168 170 184 195 192 134 122 163 150 147 148 141 144 151 150 164 171 159 159 170 173 160 155 173 176 169 177 208 194 182 188 177 173 178 139 101 192 133 104 305 303 137 168 34 101 141 312 125 160 201 191 148 177 212 138 195 227 201 239 285 299 279 261 216 233 318 324 293 293 292 288 293 294 284 270 276 281 284 288
158 160 166 168 167 168 166 165 166 171 183 187 191 198 151 120 153 154 147 144 143 150 157 157 163 171 177 172 165 170 173 168 171 174 174 184 224 192 176 173 156 168 173 144 130 167 121 111 235 273 149 133 53 122 181 207 5 60 133 203 199 152 174 174 178 175 174 223 275 308 314 270 221 202 193 245 267 275 276 278 285 294 291 278 278 288 297 300
156 159 154 162 164 165 163 161 164 182 193 190 185 183 147 127 152 163 155 149 149 157 165 166 167 167 173 170 159 169 176 166 170 176 181 176 180 206 181 165 153 164 158 143 142 147 121 106 152 235 19 133 152 198 183 171 158 136 152 194 210 188 158 182 190 138 135 190 232 289 289 267 243 192 188 206 228 243 259 272 272 282 289 286 285 288 295 294
157 168 148 160 162 160 158 159 178 183 188 186 179 166 147 144 145 159 164 155 149 140 153 163 169 168 164 160 163 175 166 156 173 176 171 172 163 204 188 160 146 150 142 145 158 161 142 106 134 149 123 172 218 242 179 171 176 170 177 195 193 190 178 182 237 250 101 200 197 182 274 269 236 192 205 209 217 233 248 268 267 274 278 285 291 283 284 289
152 171 153 160 161 157 156 172 182 169 183 176 164 136 139 143 143 159 168 162 153 105 121 155 159 155 164 164 163 169 161 159 177 175 161 173 168 166 162 141 137 148 146 146 168 176 140 102 111 144 195 201 243 300 244 212 167 143 188 200 179 190 185 173 219 244 261 241 169 125 276 274 199 177 207 222 230 238 240 240 266 280 282 283 290 287 284 284
136 153 147 160 162 158 160 183 168 164 178 148 136 132 141 144 152 160 163 163 164 137 136 155 154 156 174 170 156 161 159 156 174 168 118 148 168 172 150 138 139 152 151 146 166 175 136 99 98 42 303 299 329 351 348 348 87 143 246 183 152 196 196 176 191 176 204 229 144 131 262 263 202 203 222 233 252 272 282 260 254 272 289 285 279 285 291 288
125 120 141 163 165 165 171 182 168 158 149 133 134 140 133 142 159 160 163 169 173 159 155 164 169 168 170 164 162 166 162 152 164 155 111 141 165 159 150 148 152 162 170 173 171 173 166 130 115 93 34 354 346 328 286 298 111 191 219 164 162 161 134 149 156 119 235 214 157 197 252 243 281 317 314 310 316 306 274 251 236 252 280 288 284 287 290 293
140 119 132 165 167 172 183 177 160 148 142 137 140 141 129 138 168 167 164 166 168 158 156 160 157 145 139 146 152 163 163 145 146 151 105 124 126 148 158 160 165 171 175 163 154 157 176 170 148 138 147 183 202 218 221 189 147 221 200 184 192 176 165 179 165 186 235 209 169 210 246 271 359 338 339 330 322 303 264 239 239 248 256 271 283 292 301 306
153 137 153 161 167 179 188 171 158 153 146 141 140 149 143 142 166 171 160 157 146 131 122 120 133 121 128 143 140 163 174 131 130 153 145 145 148 201 174 169 172 174 161 150 151 146 141 172 185 182 185 188 188 197 165 131 149 201 198 186 195 194 188 188 188 210 217 173 197 227 236 263 307 315 320 316 310 298 281 261 258 257 253 259 269 283 300 298
164 149 164 160 157 176 182 177 169 162 155 151 150 159 151 146 154 161 158 167 169 132 97 105 144 143 155 156 151 171 172 121 123 154 152 150 127 89 163 172 177 171 155 154 160 146 120 189 201 198 201 186 158 163 150 144 174 192 174 180 196 194 188 195 215 218 154 132 238 232 205 233 252 264 289 298 294 285 285 283 279 272 269 275 290 309 313 300
172 132 168 145 96 171 172 169 173 166 158 156 155 157 155 153 155 156 157 151 157 155 129 130 165 167 167 164 159 166 162 134 145 160 156 155 134 122 145 175 194 174 159 164 172 155 156 197 199 192 196 175 118 162 163 157 174 175 169 187 195 196 200 207 222 221 162 219 245 220 172 221 222 202 239 255 256 260 268 276 285 287 285 297 322 322 309 297
140 98 143 36 91 163 157 149 165 168 159 149 140 158 158 155 158 162 157 143 162 177 165 164 177 175 170 169 163 160 167 171 178 178 169 160 155 151 150 155 223 132 136 160 176 165 163 188 187 166 175 164 98 152 155 143 152 172 190 197 196 203 210 213 223 224 216 239 249 252 253 252 214 191 227 236 249 265 271 278 288 291 291 297 300 291 284 280
147 143 140 67 108 160 153 151 164 167 160 149 149 164 162 160 163 163 159 162 171 179 178 178 180 175 171 172 170 177 186 184 178 173 160 150 153 159 158 162 152 96 104 149 169 298 163 174 72 112 141 238 90 99 86 105 143 183 214 217 211 213 217 219 226 227 232 247 254 263 271 269 220 193 232 258 298 307 286 278 280 277 280 286 281 276 276 275
128 142 137 124 128 155 153 158 163 161 166 169 163 163 166 169 167 158 153 182 175 178 187 183 176 171 170 175 184 193 192 179 160 155 154 153 159 164 162 155 142 133 131 152 159 151 140 153 53 99 144 244 238 114 99 75 69 260 245 233 221 215 215 219 221 213 222 241 248 250 260 260 206 184 215 251 273 266 261 268 270 267 272 277 274 269 265 266
108 111 115 124 135 156 158 158 162 167 173 172 162 163 169 172 167 156 149 255 161 172 184 171 161 160 171 186 195 192 170 143 134 143 150 151 154 154 149 155 157 156 157 160 160 147 137 142 128 135 166 238 284 134 126 91 57 269 251 231 215 211 210 215 227 224 222 228 232 236 245 238 158 173 192 213 234 241 247 251 252 259 263 256 252 253 255 256